Zurück zum Katalog

ARIANE 44LP DEB

AktivHEO
NORAD 27048·DEBRIS·🇫🇷 France

Gestartet Aug 8, 1989 von Guiana Space Centre

Loading…

Nächste Überflüge (nächste 24 Stunden)

TLE

AktuellSource: Space-Track

Epoche: Sep 14, 2026, 11:11 UTC

1 27048U 89062L   26257.46642504  .00057580  00000-0  84151-2 0  9995
2 27048   8.3999 336.2559 5553845 208.0176 105.5021  4.73884794311332

Verfolge ARIANE 44LP DEB in Echtzeit mit AllMySat

Download on the App Store